Weather History for ESNQ - March, 2013

Change the Weather History Date:

Thursday, March 21, 2013

  Actual Average Record
Temperature  
Mean Temperature 8 °F -  
Max Temperature 19 °F - - ()
Min Temperature -2 °F - - ()
Degree Days  
Heating Degree Days 56    
Moisture  
Dew Point 6 °F    
Average Humidity 75    
Maximum Humidity 86    
Minimum Humidity 56    
Precipitation  
Precipitation 0.00 in - - ()
Sea Level Pressure  
Sea Level Pressure 30.60 in    
Wind  
Wind Speed 5 mph ()    
Max Wind Speed 16 mph    
Max Gust Speed -    
Visibility 6.1 miles    
Events Snow    
T = Trace of Precipitation, MM = Missing Value Source: Averaged Metar Reports

Daily Weather History Graph

Daily Weather History Graph

Search for Another Location

Airport or City:

Trip Planner

Search our weather history database for the weather conditions in past years. The results will help you decide how hot, cold, wet, or windy it might be!

Date:

Astronomy

Mar. 21, 2013 Rise Set
Actual Time 5:34 AM CET 5:59 PM CET
Civil Twilight 4:38 AM CET 6:55 PM CET
Nautical Twilight 3:29 AM CET 8:05 PM CET
Astronomical Twilight 2:02 AM CET 9:35 PM CET
Moon 9:36 AM CET (3/21) 4:22 AM CET (3/21)
Length of Visible Light 14h 16m
Length of Day
12h 25m
Waxing Gibbous, 66% of the Moon is Illuminated
Mar 21
Waxing Gibbous
Mar 27
Full
Apr 3
Last Quarter
Apr 10
New
Apr 18
First Quarter

Hourly Weather History & Observations

Time (CET) Temp. Windchill Dew Point Humidity Pressure Visibility Wind Dir Wind Speed Gust Speed Precip Events Conditions
12:20 AM -2.2 °F - -9.4 °F 71% 30.60 in 6.2 mi South 2.3 mph - N/A   Overcast
12:50 AM -0.4 °F - -7.6 °F 72% 30.60 in 6.2 mi Variable 1.2 mph - N/A   Overcast
1:20 AM 1.4 °F -6.2 °F -7.6 °F 66% 30.60 in 6.2 mi SSE 3.5 mph - N/A   Overcast
1:50 AM 5.0 °F - -7.6 °F 56% 30.60 in 6.2 mi SE 2.3 mph - N/A   Overcast
2:20 AM 5.0 °F - -5.8 °F 61% 30.60 in 6.2 mi Calm Calm - N/A   Overcast
2:50 AM 8.6 °F -1.3 °F -2.2 °F 62% 30.60 in 6.2 mi West 5.8 mph - N/A   Overcast
3:20 AM 6.8 °F - -2.2 °F 67% 30.60 in 6.2 mi Variable 2.3 mph - N/A   Overcast
3:50 AM 6.8 °F -0.1 °F -0.4 °F 72% 30.60 in 6.2 mi East 3.5 mph - N/A   Overcast
4:20 AM 6.8 °F - -0.4 °F 72% 30.60 in 1.6 mi Variable 1.2 mph - N/A Snow Light Snow
4:50 AM 6.8 °F - 1.4 °F 79% 30.60 in 6.2 mi Variable 1.2 mph - N/A   Overcast
5:20 AM 8.6 °F 2.0 °F 1.4 °F 73% 30.60 in 6.2 mi Variable 3.5 mph - N/A   Overcast
5:50 AM 8.6 °F - 3.2 °F 79% 30.60 in 6.2 mi Variable 1.2 mph - N/A   Mostly Cloudy
6:20 AM 10.4 °F - 5.0 °F 79% 30.60 in 6.2 mi Variable 2.3 mph - N/A   Mostly Cloudy
6:50 AM 10.4 °F - 3.2 °F 73% 30.60 in 6.2 mi Calm Calm - N/A   Mostly Cloudy
7:20 AM 12.2 °F 4.3 °F 5.0 °F 73% 30.60 in 6.2 mi North 4.6 mph - N/A   Mostly Cloudy
7:50 AM 14.0 °F 6.5 °F 6.8 °F 73% 30.60 in 6.2 mi North 4.6 mph - N/A   Scattered Clouds
8:20 AM 14.0 °F 3.9 °F 8.6 °F 79% 30.60 in 6.2 mi NNE 6.9 mph - N/A   Scattered Clouds
8:50 AM 15.8 °F 3.4 °F 10.4 °F 79% 30.60 in 6.2 mi NE 10.4 mph - N/A   Partly Cloudy
9:20 AM 15.8 °F 5.1 °F 10.4 °F 79% 30.60 in 6.2 mi NNE 8.1 mph - N/A   Scattered Clouds
9:50 AM 17.6 °F 7.3 °F 12.2 °F 79% 30.60 in 6.2 mi NNE 8.1 mph - N/A   Scattered Clouds
10:20 AM 17.6 °F 5.7 °F 12.2 °F 79% 30.60 in 6.2 mi NNE 10.4 mph - N/A   Mostly Cloudy
10:50 AM 17.6 °F 6.4 °F 12.2 °F 79% 30.60 in 6.2 mi North 9.2 mph - N/A   Mostly Cloudy
11:20 AM 19.4 °F 7.9 °F 12.2 °F 74% 30.60 in 6.2 mi NNE 10.4 mph - N/A   Mostly Cloudy
11:50 AM 17.6 °F 5.7 °F 14.0 °F 86% 30.60 in 6.2 mi North 10.4 mph - N/A Snow Light Snow
12:20 PM 17.6 °F 5.0 °F 12.2 °F 79% 30.60 in 6.2 mi North 11.5 mph - N/A Snow Light Snow
12:50 PM 19.4 °F 6.6 °F 12.2 °F 74% 30.60 in 6.2 mi NNE 12.7 mph - N/A   Mostly Cloudy
1:20 PM 19.4 °F 6.6 °F 12.2 °F 74% 30.60 in 6.2 mi NNE 12.7 mph - N/A   Scattered Clouds
1:50 PM 19.4 °F 5.5 °F 12.2 °F 74% 30.60 in 6.2 mi NE 15.0 mph - N/A   Mostly Cloudy
2:20 PM 19.4 °F 5.0 °F 12.2 °F 74% 30.60 in 6.2 mi NNE 16.1 mph - N/A   Mostly Cloudy
2:50 PM 19.4 °F 6.6 °F 12.2 °F 74% 30.60 in 6.2 mi NNE 12.7 mph - N/A   Scattered Clouds
3:20 PM 17.6 °F 4.3 °F 12.2 °F 79% 30.60 in 6.2 mi NNE 12.7 mph - N/A   Partly Cloudy
3:50 PM 17.6 °F 3.7 °F 10.4 °F 73% 30.60 in - NNE 13.8 mph - N/A   Clear
4:20 PM 17.6 °F 3.2 °F 10.4 °F 73% 30.60 in - NNE 15.0 mph - N/A   Clear
4:50 PM 15.8 °F 2.7 °F 10.4 °F 79% 30.60 in - NNE 11.5 mph - N/A   Clear
5:20 PM 15.8 °F 4.2 °F 8.6 °F 73% 30.60 in - North 9.2 mph - N/A   Clear
5:50 PM 14.0 °F 2.0 °F 8.6 °F 79% 30.60 in - North 9.2 mph - N/A   Clear
6:20 PM 12.2 °F 2.9 °F 6.8 °F 79% 30.60 in - North 5.8 mph - N/A   Clear
6:50 PM 12.2 °F 1.7 °F 6.8 °F 79% 30.60 in - NNW 6.9 mph - N/A   Clear
7:20 PM 12.2 °F -0.2 °F 6.8 °F 79% 30.60 in - NNW 9.2 mph - N/A   Clear
7:50 PM 12.2 °F 1.7 °F 6.8 °F 79% 30.60 in - NNW 6.9 mph - N/A   Clear
8:20 PM 12.2 °F 1.7 °F 6.8 °F 79% 30.60 in - NNW 6.9 mph - N/A   Clear
8:50 PM 12.2 °F 1.7 °F 5.0 °F 73% 30.60 in - NW 6.9 mph - N/A   Clear
9:20 PM 12.2 °F -0.2 °F 5.0 °F 73% 30.60 in - WNW 9.2 mph - N/A   Clear
9:50 PM 6.8 °F -2.0 °F 1.4 °F 79% 30.60 in - WNW 4.6 mph - N/A   Clear
10:20 PM 6.8 °F - 1.4 °F 79% 30.60 in - WSW 2.3 mph - N/A   Clear
10:50 PM 6.8 °F - 3.2 °F 85% 30.60 in - Variable 2.3 mph - N/A   Clear
11:20 PM 15.8 °F - 6.8 °F 68% 30.60 in 6.2 mi Variable 1.2 mph - N/A   Overcast
11:50 PM 15.8 °F 6.1 °F 6.8 °F 68% 30.57 in 6.2 mi NNW 6.9 mph - N/A   Overcast